Wind_Speed
14 10 15 20 19 16 11 12 12 10 10 10 10 10 10 10 10 14 18 18 15 22 11 15 24 19 16 16 23 27 5 16 20 19 14 14 9 3 3 8 5 6 6 2 5
17 15 13 13 18 15 13 11 10 10 10 9 10 9 8 8 8 15 17 17 21 16 17 14 27 23 25 23 16 15 14 20 18 15 16 16 14 9 9 11 14 14 10 6 13
15 17 19 13 10 17 18 9 9 10 10 8 9 10 9 6 9 8 10 13 16 16 26 13 23 26 27 24 16 20 18 20 25 6 12 13 10 8 15 11 11 10 10 6 8
19 20 20 21 13 12 16 12 7 11 10 9 9 8 9 3 4 1 6 7 7 15 26 17 13 24 22 22 24 11 26 27 15 12 15 12 10 7 7 12 10 6 6 8 5
19 20 23 21 22 13 12 13 11 11 10 9 9 9 7 7 10 8 8 5 5 13 20 23 14 21 24 26 25 20 14 25 24 21 19 12 7 4 8 7 5 1 1 4 6
19 22 21 22 19 18 12 11 13 12 12 9 10 8 6 12 5 5 10 11 6 10 10 20 13 21 21 25 23 23 13 20 25 17 16 16 20 15 14 11 6 5 3 1 3
20 21 22 23 20 20 17 11 12 12 12 10 10 6 9 14 7 9 11 9 8 10 17 25 15 15 12 20 31 15 16 16 16 11 17 20 13 15 28 15 11 9 8 6 5
20 20 23 24 19 20 17 12 9 13 10 10 9 6 10 8 8 11 9 7 11 8 9 12 14 16 14 19 23 23 21 4 16 22 10 9 18 21 24 24 29 15 15 11 8
21 21 21 20 19 18 18 10 9 11 9 7 5 6 10 6 6 11 6 6 10 6 6 8 7 12 23 17 16 19 16 15 8 14 9 14 9 13 5 21 31 24 23 21 15
21 19 19 19 19 19 15 6 6 5 5 4 6 7 6 8 13 5 4 7 12 10 11 6 3 8 16 17 18 23 21 20 13 15 14 16 12 7 17 21 25 32 31 23 24
19 19 17 18 19 18 3 3 2 3 7 6 6 10 5 10 6 3 3 5 8 15 4 5 1 10 25 24 16 18 19 16 19 13 18 13 15 18 10 14 18 22 24 32 25
19 18 16 18 16 14 4 4 4 2 3 6 7 7 7 5 4 2 2 5 4 3 9 5 1 4 7 18 6 16 16 10 10 10 11 14 18 21 19 17 14 21 20 27 29
17 17 17 14 16 5 5 6 4 1 4 2 5 5 5 5 2 1 3 2 1 4 11 7 3 3 6 12 10 14 16 15 12 7 12 11 18 17 18 21 18 18 18 16 13
16 16 13 10 5 2 3 5 3 0 3 3 1 1 3 3 3 2 6 2 4 9 15 6 1 2 4 14 12 13 13 9 9 12 9 14 6 19 20 18 18 20 17 17 15
16 16 12 6 3 1 4 3 2 1 2 1 0 4 3 4 4 4 1 5 3 7 4 4 8 6 8 16 12 12 9 12 12 16 2 10 6 10 8 16 17 19 21 20 17
12 8 2 5 4 3 3 2 1 3 1 2 2 2 3 2 4 3 1 2 9 6 11 5 5 0 7 9 4 13 13 10 6 7 5 14 12 8 9 8 10 14 19 20 21
5 5 9 9 2 4 4 2 3 2 2 3 2 2 6 3 4 4 5 7 3 4 5 4 6 8 11 11 11 16 17 6 5 4 6 1 9 3 3 2 2 3 3 8 15
7 8 9 9 5 4 1 3 2 1 1 3 5 3 2 3 3 4 5 3 1 6 2 2 5 7 5 8 8 15 14 4 6 6 8 5 6 2 3 4 4 5 6 7 8
10 5 3 5 4 3 4 4 2 1 3 1 4 3 2 1 2 2 2 5 4 2 0 2 3 2 3 3 6 10 6 3 2 3 0 7 4 9 7 6 4 2 1 4 6
7 3 3 4 1 2 4 0 1 0 2 3 4 4 3 4 4 4 5 1 4 1 3 4 4 4 4 4 2 4 8 3 1 3 4 4 3 3 11 9 6 7 9 9 8
6 3 5 3 1 3 2 1 1 2 1 3 3 2 2 3 5 3 3 2 3 4 1 6 4 2 8 7 10 4 4 3 2 3 3 1 5 7 12 10 3 6 8 11 12
5 2 6 2 2 3 1 2 1 1 2 0 1 5 3 1 4 2 3 3 5 4 6 2 4 4 2 2 7 10 11 13 5 4 3 4 2 6 3 3 1 2 8 14 13
5 3 5 4 2 3 2 2 2 0 2 1 1 1 2 2 3 4 5 2 4 3 3 3 4 5 4 3 3 7 10 7 10 3 5 4 3 5 4 3 4 6 13 18 19
7 3 3 4 5 4 4 3 4 2 2 1 1 2 2 3 1 7 6 4 4 3 2 3 4 3 3 2 6 10 14 14 12 5 10 12 14 12 8 8 12 17 20 23 18
6 3 6 4 7 7 4 3 6 3 0 2 3 1 0 4 4 5 5 8 5 2 3 3 2 2 4 5 3 3 11 15 13 17 13 13 15 14 13 14 19 22 20 19 17
6 5 5 6 5 8 5 6 6 3 3 3 3 4 1 5 5 3 6 3 4 5 2 1 2 2 1 2 2 5 6 8 14 16 16 17 17 16 17 12 17 21 21 21 20
14 11 7 7 8 8 6 6 5 2 4 5 2 5 8 7 5 4 3 3 2 3 5 2 4 2 2 1 3 6 8 10 8 8 7 11 11 12 12 13 16 18 19 20 20
Wind_Direction
327 318 334 327 336 331 332 332 333 330 336 332 326 318 306 297 281 261 243 242 244 243 232 221 220 213 208 214 209 206 228 234 216 224 174 162 171 156 124 123 126 95 90 118 150
341 332 318 325 328 328 329 327 326 327 335 339 333 324 307 296 278 266 241 242 241 244 240 221 209 211 205 210 203 212 208 209 202 220 159 174 193 139 146 139 118 99 71 99 157
336 332 329 309 310 319 323 309 314 319 325 336 331 331 323 303 281 270 215 244 246 238 239 235 213 208 211 206 202 207 212 215 216 155 144 155 146 163 154 148 113 92 74 75 157
335 331 326 320 302 317 318 312 293 305 308 322 328 327 333 306 311 306 239 253 253 219 222 241 240 207 212 201 194 215 217 207 168 172 166 172 143 148 138 126 123 88 72 60 125
329 322 322 320 318 282 307 311 303 291 299 308 322 327 338 279 275 277 271 295 281 220 212 237 242 206 211 201 190 211 225 221 161 169 189 155 199 215 193 176 211 251 14 68 73
322 319 318 318 321 313 278 305 296 291 290 298 310 323 307 276 277 310 299 274 258 217 235 233 210 206 219 207 195 207 207 253 159 170 183 189 231 257 232 209 234 224 241 186 88
315 313 313 317 312 316 306 262 294 282 281 287 296 314 286 259 283 303 310 268 234 226 206 228 241 265 219 205 200 202 187 253 190 188 200 178 210 236 245 236 223 231 239 247 230
311 310 310 311 307 310 310 274 276 291 278 283 292 284 274 277 273 296 284 264 221 227 235 213 248 310 257 187 185 211 186 195 207 191 153 182 215 215 234 243 245 233 242 240 241
313 309 308 311 311 307 308 267 280 279 266 283 306 274 282 293 289 293 260 231 201 219 219 249 206 283 203 185 183 197 208 183 186 205 195 192 218 243 253 219 230 241 244 240 237
308 304 304 308 309 305 308 270 289 270 273 263 259 268 245 302 305 278 272 205 174 179 172 218 165 255 178 175 185 192 214 189 176 188 202 198 229 236 212 214 223 231 238 244 233
309 310 307 306 307 306 315 314 268 211 220 270 297 279 327 318 301 301 313 188 199 185 159 131 134 191 175 181 189 189 198 206 185 181 186 204 243 235 226 215 227 230 232 233 233
307 308 305 301 307 302 235 228 264 263 268 246 274 277 285 264 310 335 304 160 199 165 171 130 201 242 207 179 213 184 178 201 140 165 187 206 216 228 233 243 232 236 235 231 226
306 303 301 316 307 299 200 239 228 280 262 170 279 286 286 253 69 81 173 169 101 178 167 109 354 286 198 153 174 182 173 166 174 155 207 251 224 229 229 235 231 235 240 252 223
308 306 308 308 320 219 214 227 216 269 269 125 180 330 320 281 89 79 164 99 204 169 123 118 42 55 318 167 166 161 192 171 169 171 208 208 246 211 225 217 227 233 238 245 254
320 308 296 238 262 199 228 171 212 215 280 49 129 293 337 15 91 9 67 205 116 102 210 105 152 198 234 174 179 141 159 167 174 208 273 194 248 264 187 220 223 228 237 238 242
338 322 310 136 173 209 195 160 104 239 52 64 44 1 134 52 153 160 3 114 86 51 44 66 114 184 203 98 90 142 147 135 194 228 239 244 207 247 194 220 224 220 229 233 236
16 93 107 123 167 169 149 238 233 329 139 135 100 4 348 127 106 100 144 131 40 68 10 83 127 232 203 116 135 155 151 145 178 197 238 332 213 225 115 240 256 114 262 248 242
131 121 120 124 175 148 219 249 265 138 153 78 139 155 181 106 32 80 124 112 51 168 153 124 155 134 161 154 166 177 178 171 189 197 197 137 226 222 263 280 297 298 270 264 258
153 141 137 164 183 107 266 251 84 136 8 238 193 164 130 238 143 70 258 130 173 205 179 78 75 95 232 195 221 185 230 21 334 27 41 173 191 268 165 147 170 96 358 311 296
161 167 204 179 112 77 256 296 93 330 320 312 24 13 71 110 155 166 203 73 148 222 301 130 106 267 141 192 167 250 153 172 299 185 209 125 258 241 182 174 139 70 43 36 15
166 210 240 208 71 254 284 76 219 158 260 346 78 76 69 172 174 152 71 98 147 151 317 147 146 224 166 203 187 173 189 231 279 334 310 235 118 47 136 134 69 84 50 15 359
183 222 216 129 261 251 244 183 248 102 130 262 80 87 154 98 79 77 122 35 154 173 138 58 109 141 158 285 313 249 228 214 222 185 243 320 3 136 148 54 226 121 351 347 338
179 156 213 169 231 206 147 204 270 276 65 134 109 45 31 104 114 111 94 135 147 153 147 196 156 132 129 219 221 230 218 237 238 13 214 262 169 80 122 194 198 266 322 330 328
163 148 171 217 242 272 195 176 142 62 80 54 54 167 152 85 73 135 117 156 206 252 262 252 184 279 244 55 162 201 220 213 231 224 234 230 261 279 284 272 271 302 321 311 308
188 166 174 187 210 215 233 175 170 159 154 37 133 55 34 129 110 111 102 131 192 167 213 275 138 67 48 58 72 223 223 220 217 235 245 261 276 282 303 318 317 308 303 302 299
181 169 192 150 157 195 191 190 181 136 315 100 100 69 160 89 29 110 137 181 167 184 167 99 126 107 316 2 278 271 247 237 239 244 246 261 268 281 299 302 307 304 301 298 292
202 178 196 154 181 202 184 157 146 225 64 57 75 114 85 45 36 55 22 27 47 217 180 188 139 187 148 277 307 268 252 233 234 260 277 264 285 343 329 315 309 308 306 302 295
Height
1516 1514 1512 1507 1505 1502 1498 1496 1494 1491 1488 1486 1484 1481 1480 1479 1479 1479 1479 1482 1480 1484 1483 1486 1491 1492 1495 1496 1497 1498 1501 1494 1487 1484 1493 1500 1504 1506 1505 1507 1509 1511 1513 1516 1514
1515 1512 1510 1507 1502 1500 1497 1495 1493 1490 1488 1486 1483 1481 1478 1477 1478 1476 1477 1476 1478 1480 1481 1483 1485 1488 1490 1492 1492 1492 1498 1494 1485 1482 1490 1499 1501 1504 1506 1508 1510 1512 1514 1514 1514
1514 1511 1508 1503 1501 1498 1495 1493 1492 1490 1487 1484 1483 1481 1478 1478 1477 1473 1472 1473 1474 1476 1477 1480 1483 1485 1485 1486 1488 1486 1486 1488 1485 1490 1493 1499 1502 1504 1504 1507 1509 1513 1515 1516 1516
1513 1510 1505 1500 1498 1496 1493 1492 1491 1489 1487 1484 1482 1480 1479 1479 1476 1473 1472 1471 1472 1474 1475 1479 1479 1481 1479 1479 1485 1488 1483 1486 1488 1495 1496 1500 1505 1506 1505 1509 1513 1515 1516 1516 1517
1511 1507 1504 1499 1496 1493 1491 1490 1489 1487 1485 1483 1481 1479 1479 1479 1474 1471 1472 1471 1471 1471 1472 1477 1478 1479 1473 1473 1482 1484 1484 1485 1486 1495 1498 1502 1505 1506 1506 1510 1513 1515 1517 1517 1518
1509 1505 1501 1497 1494 1490 1488 1488 1487 1486 1484 1482 1480 1479 1479 1477 1472 1472 1470 1470 1471 1470 1469 1476 1476 1475 1471 1469 1475 1478 1486 1489 1486 1493 1496 1503 1504 1508 1505 1509 1512 1514 1516 1517 1519
1506 1502 1499 1495 1491 1488 1485 1484 1484 1482 1481 1480 1478 1477 1477 1474 1470 1470 1469 1468 1470 1472 1473 1473 1476 1473 1469 1463 1470 1477 1488 1487 1478 1489 1496 1496 1506 1506 1502 1507 1511 1513 1514 1516 1518
1502 1499 1495 1492 1489 1486 1482 1481 1480 1480 1479 1477 1476 1478 1473 1469 1468 1467 1467 1466 1466 1468 1468 1470 1470 1469 1468 1466 1469 1476 1480 1496 1482 1489 1488 1494 1495 1499 1504 1507 1507 1509 1512 1513 1515
1498 1494 1491 1489 1486 1482 1479 1477 1478 1478 1477 1477 1476 1476 1472 1467 1466 1464 1465 1466 1466 1466 1466 1470 1474 1474 1465 1464 1473 1477 1474 1494 1487 1487 1490 1494 1495 1496 1502 1506 1508 1505 1508 1509 1511
1494 1491 1487 1486 1483 1480 1476 1476 1476 1475 1476 1477 1476 1478 1470 1467 1464 1461 1462 1464 1466 1469 1472 1475 1478 1469 1457 1460 1466 1465 1466 1467 1483 1488 1491 1492 1496 1496 1499 1500 1501 1501 1504 1505 1506
1490 1487 1484 1482 1480 1477 1475 1477 1479 1478 1476 1474 1473 1470 1467 1468 1464 1462 1461 1463 1466 1466 1469 1473 1474 1458 1448 1450 1449 1454 1463 1461 1469 1479 1488 1495 1498 1499 1494 1495 1496 1495 1496 1499 1501
1487 1483 1481 1479 1477 1474 1474 1476 1474 1475 1471 1471 1470 1469 1466 1466 1465 1463 1461 1464 1465 1462 1467 1471 1469 1459 1451 1450 1456 1451 1459 1465 1466 1482 1484 1490 1496 1491 1489 1489 1490 1492 1492 1491 1497
1483 1480 1478 1475 1474 1472 1473 1474 1472 1472 1471 1469 1469 1467 1466 1466 1464 1465 1464 1464 1464 1463 1460 1463 1468 1466 1461 1458 1459 1456 1461 1469 1476 1480 1488 1486 1485 1484 1483 1485 1487 1489 1491 1491 1494
1479 1477 1475 1474 1474 1472 1474 1472 1472 1473 1471 1467 1467 1467 1466 1463 1465 1465 1466 1466 1467 1462 1457 1465 1471 1469 1470 1461 1461 1469 1465 1467 1476 1486 1489 1483 1482 1471 1473 1476 1481 1485 1489 1491 1492
1474 1473 1472 1470 1472 1473 1473 1472 1471 1473 1454 1467 1467 1466 1465 1464 1467 1463 1465 1463 1459 1462 1461 1471 1473 1481 1475 1463 1460 1467 1467 1476 1483 1484 1477 1485 1487 1464 1463 1470 1474 1479 1484 1488 1491
1472 1471 1469 1469 1471 1472 1472 1472 1473 1473 1461 1464 1467 1466 1463 1463 1465 1465 1463 1462 1462 1463 1466 1471 1474 1478 1471 1465 1466 1471 1477 1484 1485 1484 1497 1483 1483 1470 1465 1469 1468 1472 1477 1481 1485
1472 1472 1470 1470 1474 1471 1472 1473 1469 1456 1465 1462 1467 1468 1466 1460 1459 1462 1462 1463 1464 1469 1476 1476 1481 1482 1474 1471 1472 1472 1477 1492 1497 1500 1490 1480 1479 1463 1465 1467 1469 1471 1476 1478 1481
1473 1474 1472 1471 1471 1472 1473 1471 1459 1460 1456 1457 1461 1468 1464 1465 1465 1462 1464 1468 1470 1470 1477 1470 1476 1469 1471 1469 1474 1471 1467 1476 1487 1484 1478 1485 1484 1467 1464 1467 1472 1473 1475 1478 1479
1473 1475 1473 1472 1471 1472 1473 1464 1460 1457 1456 1456 1454 1460 1470 1470 1467 1469 1468 1465 1466 1471 1475 1473 1478 1476 1476 1476 1475 1475 1481 1479 1479 1473 1472 1472 1469 1467 1467 1470 1472 1473 1475 1475 1476
1474 1475 1474 1472 1471 1472 1470 1462 1461 1460 1461 1459 1456 1464 1460 1467 1468 1471 1467 1469 1470 1472 1470 1475 1479 1480 1479 1479 1479 1475 1475 1484 1485 1491 1483 1473 1471 1461 1464 1468 1469 1471 1474 1475 1475
1474 1474 1472 1471 1471 1471 1463 1465 1462 1459 1462 1459 1460 1465 1465 1467 1463 1460 1468 1472 1470 1471 1470 1467 1474 1486 1479 1479 1477 1480 1482 1480 1476 1481 1478 1470 1463 1459 1462 1467 1470 1473 1475 1475 1475
1471 1472 1471 1471 1472 1467 1462 1463 1463 1461 1462 1461 1460 1459 1463 1461 1463 1461 1467 1468 1469 1471 1468 1470 1474 1483 1485 1482 1479 1473 1474 1475 1480 1489 1481 1483 1471 1462 1466 1470 1473 1473 1474 1474 1475
1468 1470 1471 1471 1464 1462 1462 1461 1462 1459 1460 1459 1458 1461 1460 1458 1463 1463 1467 1473 1474 1472 1471 1470 1473 1481 1487 1484 1481 1477 1474 1474 1474 1483 1485 1482 1469 1464 1469 1471 1473 1472 1471 1472 1473
1465 1469 1471 1470 1467 1463 1459 1460 1460 1463 1461 1461 1460 1460 1459 1458 1459 1462 1469 1475 1475 1473 1474 1472 1466 1467 1467 1464 1463 1474 1472 1473 1476 1487 1479 1476 1471 1465 1465 1467 1468 1468 1471 1472 1471
1461 1458 1462 1465 1462 1461 1461 1459 1459 1459 1462 1461 1458 1459 1457 1458 1460 1465 1470 1473 1475 1474 1473 1470 1475 1478 1472 1471 1471 1471 1469 1470 1478 1476 1479 1473 1470 1465 1466 1467 1469 1471 1470 1470 1469
1457 1458 1460 1458 1460 1460 1462 1459 1459 1464 1463 1460 1459 1461 1461 1459 1465 1464 1468 1468 1467 1471 1470 1471 1480 1479 1482 1476 1476 1477 1472 1470 1470 1470 1471 1471 1471 1467 1468 1470 1470 1471 1469 1468 1466
1450 1452 1453 1458 1459 1457 1456 1460 1464 1467 1468 1467 1465 1461 1465 1473 1471 1470 1471 1472 1470 1470 1469 1471 1477 1480 1473 1478 1476 1474 1468 1469 1471 1470 1472 1473 1468 1469 1471 1471 1471 1470 1468 1465 1462